Deadmans Cay Airport


Codes: MYLD/LGI
Name: Deadmans Cay Airport
City: Deadmans Cay
Country: Bahamas
Elevation: 9 ft.
Wikipedia:

Photos at Deadmans Cay Airport


   Photos courtesy of SpottingLog. You can add your own sightings and photos by signing up for a free trial today.



No photos found.

Weather at Deadmans Cay Airport


Time (UTC)DescriptionTempratureWindCloud coverageVisibilityPressureHumidity
25-Jun-2024 21:00Broken Clouds29°C4 mph, NE62%10000m1015hPa76%
26-Jun-2024 00:00Broken Clouds29°C9 mph, NE66%10000m1015hPa77%
26-Jun-2024 03:00Broken Clouds28°C7 mph, E73%10000m1016hPa82%
26-Jun-2024 06:00Light Rain28°C7 mph, SE68%10000m1016hPa84%
26-Jun-2024 09:00Overcast Clouds28°C9 mph, E99%10000m1014hPa83%
26-Jun-2024 12:00Overcast Clouds28°C11 mph, SE100%10000m1015hPa84%
26-Jun-2024 15:00Overcast Clouds28°C9 mph, SE97%10000m1016hPa83%
26-Jun-2024 18:00Overcast Clouds29°C4 mph, SE100%10000m1015hPa79%
26-Jun-2024 21:00Scattered Clouds29°C0 mph, N44%10000m1014hPa77%
27-Jun-2024 00:00Broken Clouds29°C7 mph, NE66%10000m1015hPa78%
27-Jun-2024 03:00Few Clouds28°C7 mph, E21%10000m1015hPa85%
27-Jun-2024 06:00Few Clouds28°C11 mph, SE15%10000m1014hPa86%
27-Jun-2024 09:00Scattered Clouds28°C11 mph, SE25%10000m1013hPa83%
27-Jun-2024 12:00Scattered Clouds28°C7 mph, SE41%10000m1014hPa84%
27-Jun-2024 15:00Overcast Clouds28°C4 mph, E86%10000m1015hPa83%
27-Jun-2024 18:00Broken Clouds28°C4 mph, E57%10000m1014hPa80%
27-Jun-2024 21:00Few Clouds29°C4 mph, NE19%10000m1014hPa77%
28-Jun-2024 00:00Few Clouds29°C9 mph, NE12%10000m1014hPa79%
28-Jun-2024 03:00Clear Sky28°C7 mph, E6%10000m1015hPa85%
28-Jun-2024 06:00Scattered Clouds28°C7 mph, E38%10000m1014hPa83%
28-Jun-2024 09:00Overcast Clouds28°C4 mph, E96%10000m1014hPa84%
28-Jun-2024 12:00Light Rain28°C9 mph, SE94%10000m1015hPa84%
28-Jun-2024 15:00Light Rain28°C7 mph, SE99%10000m1016hPa81%
28-Jun-2024 18:00Overcast Clouds28°C9 mph, E99%10000m1016hPa79%
28-Jun-2024 21:00Overcast Clouds29°C9 mph, E99%10000m1015hPa78%
29-Jun-2024 00:00Light Rain29°C11 mph, E99%10000m1015hPa82%
29-Jun-2024 03:00Light Rain28°C11 mph, E99%10000m1017hPa84%
29-Jun-2024 06:00Overcast Clouds28°C13 mph, E99%10000m1016hPa81%
29-Jun-2024 09:00Overcast Clouds28°C11 mph, E100%10000m1016hPa78%
29-Jun-2024 12:00Overcast Clouds28°C13 mph, E100%10000m1017hPa79%
29-Jun-2024 15:00Light Rain28°C13 mph, E100%10000m1018hPa80%
29-Jun-2024 18:00Light Rain28°C13 mph, E100%10000m1018hPa78%
29-Jun-2024 21:00Overcast Clouds28°C13 mph, E97%10000m1017hPa79%
30-Jun-2024 00:00Overcast Clouds28°C13 mph, E98%10000m1018hPa83%
30-Jun-2024 03:00Broken Clouds28°C16 mph, E77%10000m1018hPa80%
30-Jun-2024 06:00Broken Clouds28°C16 mph, E57%10000m1018hPa77%
30-Jun-2024 09:00Light Rain28°C16 mph, E0%10000m1017hPa78%
30-Jun-2024 12:00Scattered Clouds28°C18 mph, E33%10000m1018hPa78%
30-Jun-2024 15:00Broken Clouds28°C16 mph, SE55%10000m1018hPa78%
30-Jun-2024 18:00Light Rain28°C16 mph, SE72%10000m1018hPa78%